| time (UTC) | temp C | wind direction | speed KPH | gust KPH | rain 1hr cm | rain 24hr cm | rain mn cm | humidity % | barometer mb |
| 20260506161005 | 13 | 196 | 12.9 | 29.0 | 0.03 | 0.03 | 0.00 | 94 | 1015.6 |
| 20260506160505 | 13 | 199 | 16.1 | 29.0 | 0.03 | 0.03 | 0.00 | 95 | 1015.4 |
| 20260506160005 | 13 | 197 | 9.7 | 20.9 | 0.03 | 0.03 | 0.03 | 94 | 1015.4 |
| 20260506155505 | 13 | 197 | 11.3 | 20.9 | 0.03 | 0.03 | 0.03 | 94 | 1015.4 |
| 20260506155005 | 13 | 199 | 11.3 | 24.1 | 0.03 | 0.03 | 0.03 | 94 | 1015.2 |
| 20260506154505 | 13 | 198 | 4.8 | 24.1 | 0.00 | 0.00 | 0.00 | 94 | 1015.1 |
| 20260506153448 | 13 | 195 | 8.0 | 17.7 | 0.00 | 0.00 | 0.00 | 94 | 1014.7 |
| 20260506152154 | 13 | 195 | 4.8 | 20.9 | 0.00 | 0.00 | 0.00 | 93 | 1014.8 |
| 20260506151654 | 13 | 194 | 3.2 | 20.9 | 0.00 | 0.00 | 0.00 | 93 | 1014.9 |
| 20260506151154 | 13 | 201 | 4.8 | 16.1 | 0.00 | 0.00 | 0.00 | 93 | 1014.9 |
| 20260506150654 | 13 | 200 | 3.2 | 12.9 | 0.00 | 0.00 | 0.00 | 93 | 1015.1 |
| 20260506150154 | 13 | 193 | 6.4 | 17.7 | 0.00 | 0.00 | 0.00 | 92 | 1014.9 |
| 20260506145654 | 14 | 189 | 3.2 | 25.7 | 0.00 | 0.00 | 0.00 | 91 | 1015.0 |
| 20260506145155 | 14 | 195 | 6.4 | 25.7 | 0.00 | 0.00 | 0.00 | 90 | 1015.0 |
| 20260506144726 | 14 | 193 | 6.4 | 24.1 | 0.00 | 0.00 | 0.00 | 89 | 1014.9 |
| 20260506144654 | 14 | 193 | 6.4 | 24.1 | 0.00 | 0.00 | 0.00 | 89 | 1014.9 |
| 20260506144155 | 14 | 201 | 14.5 | 22.5 | 0.00 | 0.00 | 0.00 | 89 | 1014.7 |
| 20260506143654 | 14 | 198 | 6.4 | 17.7 | 0.00 | 0.00 | 0.00 | 90 | 1014.7 |
| 20260506143155 | 14 | 195 | 11.3 | 17.7 | 0.00 | 0.00 | 0.00 | 90 | 1014.6 |
| 20260506142654 | 14 | 193 | 4.8 | 12.9 | 0.00 | 0.00 | 0.00 | 89 | 1014.6 |
| 20260506142155 | 14 | 192 | 3.2 | 11.3 | 0.00 | 0.00 | 0.00 | 88 | 1014.3 |
| 20260506141654 | 14 | 202 | 3.2 | 9.7 | 0.00 | 0.00 | 0.00 | 88 | 1014.7 |
| 20260506141155 | 14 | 0 | 0.0 | 12.9 | 0.00 | 0.00 | 0.00 | 88 | 1014.7 |
| 20260506140654 | 14 | 200 | 4.8 | 16.1 | 0.00 | 0.00 | 0.00 | 88 | 1014.9 |
| 20260506140155 | 14 | 199 | 3.2 | 16.1 | 0.00 | 0.00 | 0.00 | 89 | 1014.8 |
| 20260506135654 | 14 | 195 | 1.6 | 19.3 | 0.00 | 0.00 | 0.00 | 89 | 1014.7 |
| 20260506135155 | 14 | 193 | 8.0 | 19.3 | 0.00 | 0.00 | 0.00 | 89 | 1014.7 |
| 20260506134654 | 14 | 198 | 4.8 | 16.1 | 0.00 | 0.00 | 0.00 | 88 | 1014.8 |
| 20260506134021 | 14 | 195 | 6.4 | 17.7 | 0.00 | 0.00 | 0.00 | 88 | 1014.5 |
| 20260506133525 | 14 | 196 | 8.0 | 16.1 | 0.00 | 0.00 | 0.00 | 88 | 1014.4 |
| 20260506133021 | 14 | 183 | 4.8 | 20.9 | 0.00 | 0.00 | 0.00 | 88 | 1014.3 |
| 20260506132521 | 13 | 197 | 6.4 | 20.9 | 0.00 | 0.00 | 0.00 | 88 | 1014.4 |
| 20260506132021 | 13 | 203 | 11.3 | 32.2 | 0.00 | 0.00 | 0.00 | 89 | 1014.4 |
| 20260506131524 | 13 | 194 | 6.4 | 32.2 | 0.00 | 0.00 | 0.00 | 89 | 1014.5 |
| 20260506131025 | 13 | 190 | 11.3 | 32.2 | 0.00 | 0.00 | 0.00 | 89 | 1014.8 |
| 20260506130527 | 13 | 199 | 12.9 | 25.7 | 0.00 | 0.00 | 0.00 | 89 | 1014.7 |
| 20260506130021 | 13 | 195 | 3.2 | 19.3 | 0.00 | 0.00 | 0.00 | 89 | 1014.5 |
| 20260506125523 | 13 | 196 | 4.8 | 19.3 | 0.00 | 0.00 | 0.00 | 89 | 1014.7 |
| 20260506125021 | 13 | 191 | 4.8 | 14.5 | 0.00 | 0.00 | 0.00 | 90 | 1014.6 |
| 20260506124454 | 13 | 201 | 9.7 | 14.5 | 0.00 | 0.00 | 0.00 | 89 | 1014.6 |
| 20260506123955 | 13 | 198 | 3.2 | 16.1 | 0.00 | 0.00 | 0.00 | 90 | 1014.6 |
| 20260506123455 | 13 | 188 | 3.2 | 19.3 | 0.00 | 0.00 | 0.00 | 90 | 1014.4 |
| 20260506122955 | 13 | 191 | 1.6 | 24.1 | 0.00 | 0.00 | 0.00 | 90 | 1014.2 |
| 20260506122528 | 13 | 183 | 8.0 | 24.1 | 0.00 | 0.00 | 0.00 | 89 | 1014.0 |
| 20260506122454 | 13 | 183 | 8.0 | 24.1 | 0.00 | 0.00 | 0.00 | 89 | 1014.0 |
| 20260506121954 | 13 | 200 | 12.9 | 22.5 | 0.00 | 0.00 | 0.00 | 89 | 1014.3 |
| 20260506121454 | 13 | 197 | 11.3 | 20.9 | 0.00 | 0.00 | 0.00 | 89 | 1014.6 |
| 20260506120955 | 13 | 199 | 9.7 | 25.7 | 0.00 | 0.00 | 0.00 | 89 | 1015.0 |
| 20260506120454 | 13 | 199 | 11.3 | 27.4 | 0.00 | 0.00 | 0.00 | 89 | 1014.8 |
| 20260506115954 | 13 | 200 | 14.5 | 33.8 | 0.00 | 0.00 | 0.00 | 89 | 1014.8 |
| 20260506115454 | 13 | 198 | 17.7 | 33.8 | 0.00 | 0.00 | 0.00 | 89 | 1014.5 |
| 20260506114954 | 13 | 194 | 9.7 | 27.4 | 0.00 | 0.00 | 0.00 | 89 | 1014.5 |
| 20260506114455 | 13 | 196 | 14.5 | 30.6 | 0.00 | 0.00 | 0.00 | 89 | 1014.4 |
| 20260506113955 | 13 | 196 | 16.1 | 30.6 | 0.00 | 0.00 | 0.00 | 89 | 1014.3 |
| 20260506113454 | 13 | 201 | 17.7 | 30.6 | 0.00 | 0.00 | 0.00 | 89 | 1014.1 |
| 20260506112957 | 13 | 192 | 16.1 | 35.4 | 0.00 | 0.00 | 0.00 | 89 | 1013.9 |
| 20260506112455 | 13 | 196 | 17.7 | 40.2 | 0.00 | 0.00 | 0.00 | 89 | 1013.8 |
| 20260506111954 | 13 | 188 | 19.3 | 45.1 | 0.00 | 0.00 | 0.00 | 89 | 1014.0 |
| 20260506111535 | 13 | 194 | 22.5 | 45.1 | 0.00 | 0.00 | 0.00 | 89 | 1013.8 |
| 20260506111457 | 13 | 194 | 22.5 | 45.1 | 0.00 | 0.00 | 0.00 | 89 | 1013.8 |
| 20260506111036 | 13 | 186 | 22.5 | 35.4 | 0.00 | 0.00 | 0.00 | 89 | 1013.6 |
| 20260506110958 | 13 | 186 | 22.5 | 35.4 | 0.00 | 0.00 | 0.00 | 89 | 1013.6 |
| 20260506105649 | 13 | 198 | 14.5 | 35.4 | 0.00 | 0.00 | 0.00 | 88 | 1013.6 |
| 20260506105155 | 13 | 199 | 20.9 | 35.4 | 0.00 | 0.00 | 0.00 | 89 | 1013.8 |
| 20260506104650 | 13 | 200 | 17.7 | 33.8 | 0.00 | 0.00 | 0.00 | 88 | 1013.9 |
| 20260506104149 | 13 | 195 | 16.1 | 41.8 | 0.00 | 0.00 | 0.00 | 88 | 1013.8 |
| 20260506103649 | 13 | 198 | 20.9 | 41.8 | 0.00 | 0.00 | 0.00 | 88 | 1013.7 |
| 20260506103149 | 13 | 193 | 12.9 | 30.6 | 0.00 | 0.00 | 0.00 | 88 | 1013.9 |
| 20260506102649 | 13 | 201 | 14.5 | 30.6 | 0.00 | 0.00 | 0.00 | 88 | 1013.6 |
| 20260506102149 | 13 | 199 | 16.1 | 30.6 | 0.00 | 0.00 | 0.00 | 88 | 1013.4 |
| 20260506101649 | 13 | 196 | 17.7 | 30.6 | 0.00 | 0.00 | 0.00 | 88 | 1013.5 |
| 20260506101150 | 13 | 195 | 14.5 | 48.3 | 0.00 | 0.00 | 0.00 | 88 | 1013.5 |
| 20260506100649 | 13 | 194 | 17.7 | 48.3 | 0.00 | 0.00 | 0.00 | 88 | 1013.4 |
| 20260506100150 | 13 | 197 | 16.1 | 30.6 | 0.00 | 0.00 | 0.00 | 88 | 1013.6 |
| 20260506095649 | 13 | 199 | 16.1 | 33.8 | 0.00 | 0.00 | 0.00 | 88 | 1013.4 |
| 20260506095149 | 13 | 189 | 17.7 | 33.8 | 0.00 | 0.00 | 0.00 | 88 | 1013.5 |
| 20260506094649 | 13 | 198 | 19.3 | 33.8 | 0.00 | 0.00 | 0.00 | 88 | 1013.5 |
| 20260506094149 | 13 | 196 | 14.5 | 32.2 | 0.00 | 0.00 | 0.00 | 88 | 1013.6 |
| 20260506093649 | 13 | 191 | 12.9 | 32.2 | 0.00 | 0.00 | 0.00 | 87 | 1013.6 |
| 20260506093149 | 13 | 196 | 14.5 | 25.7 | 0.00 | 0.00 | 0.00 | 87 | 1013.5 |
| 20260506092649 | 13 | 197 | 14.5 | 25.7 | 0.00 | 0.00 | 0.00 | 87 | 1013.4 |
| 20260506092149 | 13 | 196 | 12.9 | 27.4 | 0.00 | 0.00 | 0.00 | 87 | 1013.6 |
| 20260506091649 | 13 | 198 | 14.5 | 27.4 | 0.00 | 0.00 | 0.00 | 87 | 1013.7 |
| 20260506091149 | 13 | 197 | 12.9 | 29.0 | 0.00 | 0.00 | 0.00 | 87 | 1013.6 |
| 20260506090650 | 13 | 196 | 12.9 | 29.0 | 0.00 | 0.00 | 0.00 | 87 | 1013.8 |
| 20260506090149 | 13 | 198 | 12.9 | 25.7 | 0.00 | 0.00 | 0.00 | 87 | 1013.7 |
| 20260506085649 | 13 | 200 | 14.5 | 24.1 | 0.00 | 0.00 | 0.00 | 86 | 1013.9 |
| 20260506084621 | 13 | 191 | 11.3 | 24.1 | 0.00 | 0.00 | 0.00 | 86 | 1013.9 |
| 20260506083838 | 13 | 192 | 11.3 | 25.7 | 0.00 | 0.00 | 0.00 | 86 | 1014.0 |
| 20260506083339 | 13 | 193 | 14.5 | 25.7 | 0.00 | 0.00 | 0.00 | 86 | 1013.8 |
| 20260506082838 | 13 | 194 | 12.9 | 24.1 | 0.00 | 0.00 | 0.00 | 85 | 1013.8 |
| 20260506082338 | 13 | 195 | 12.9 | 27.4 | 0.00 | 0.00 | 0.00 | 85 | 1014.0 |
| 20260506081839 | 13 | 185 | 12.9 | 27.4 | 0.00 | 0.00 | 0.00 | 85 | 1013.9 |
| 20260506081338 | 14 | 196 | 14.5 | 27.4 | 0.00 | 0.00 | 0.00 | 84 | 1013.9 |
| 20260506080839 | 14 | 186 | 14.5 | 29.0 | 0.00 | 0.00 | 0.00 | 84 | 1013.9 |
| 20260506080338 | 14 | 200 | 17.7 | 30.6 | 0.00 | 0.00 | 0.00 | 84 | 1013.9 |
| 20260506073338 | 14 | 187 | 12.9 | 29.0 | 0.00 | 0.00 | 0.00 | 83 | 1014.3 |
| 20260506072838 | 14 | 198 | 14.5 | 29.0 | 0.00 | 0.00 | 0.00 | 83 | 1014.3 |
| 20260506072338 | 14 | 194 | 14.5 | 29.0 | 0.00 | 0.00 | 0.00 | 82 | 1014.2 |
| 20260506071839 | 14 | 192 | 12.9 | 35.4 | 0.00 | 0.00 | 0.00 | 82 | 1014.1 |
| 20260506071339 | 14 | 198 | 16.1 | 48.3 | 0.00 | 0.00 | 0.00 | 82 | 1013.9 |
| 20260506070841 | 14 | 190 | 20.9 | 49.9 | 0.00 | 0.00 | 0.00 | 81 | 1014.0 |
| 20260506070338 | 14 | 197 | 16.1 | 49.9 | 0.00 | 0.00 | 0.00 | 81 | 1014.1 |
| 20260506062338 | 15 | 191 | 17.7 | 32.2 | 0.00 | 0.00 | 0.00 | 79 | 1014.6 |
| 20260506061838 | 15 | 190 | 16.1 | 37.0 | 0.00 | 0.00 | 0.00 | 79 | 1014.4 |
| 20260506061338 | 15 | 187 | 17.7 | 37.0 | 0.00 | 0.00 | 0.00 | 78 | 1014.5 |
| 20260506060838 | 15 | 194 | 17.7 | 33.8 | 0.00 | 0.00 | 0.00 | 78 | 1014.5 |
| 20260506060338 | 15 | 188 | 14.5 | 33.8 | 0.00 | 0.00 | 0.00 | 77 | 1014.4 |
| 20260506051154 | 16 | 192 | 17.7 | 32.2 | 0.00 | 0.00 | 0.00 | 72 | 1014.6 |
| 20260506050654 | 16 | 190 | 17.7 | 29.0 | 0.00 | 0.00 | 0.00 | 71 | 1014.5 |
| 20260506050154 | 16 | 190 | 16.1 | 30.6 | 0.00 | 0.00 | 0.00 | 71 | 1014.5 |
| 20260506044635 | 16 | 195 | 19.3 | 35.4 | 0.00 | 0.00 | 0.00 | 69 | 1014.8 |
| 20260506044136 | 16 | 192 | 17.7 | 35.4 | 0.00 | 0.00 | 0.00 | 68 | 1014.8 |
| 20260506043637 | 16 | 193 | 17.7 | 33.8 | 0.00 | 0.00 | 0.00 | 67 | 1014.7 |
| 20260506043135 | 16 | 197 | 17.7 | 30.6 | 0.00 | 0.00 | 0.00 | 67 | 1014.7 |
| 20260506042636 | 16 | 192 | 17.7 | 32.2 | 0.00 | 0.00 | 0.00 | 67 | 1014.7 |
| 20260506042137 | 16 | 185 | 14.5 | 32.2 | 0.00 | 0.00 | 0.00 | 66 | 1014.6 |
| 20260506041520 | 16 | 192 | 17.7 | 37.0 | 0.00 | 0.00 | 0.00 | 65 | 1014.7 |
| 20260506041020 | 16 | 199 | 19.3 | 32.2 | 0.00 | 0.00 | 0.00 | 64 | 1014.8 |
| 20260506040520 | 17 | 195 | 17.7 | 32.2 | 0.00 | 0.00 | 0.00 | 63 | 1014.9 |
| 20260506040020 | 17 | 197 | 17.7 | 30.6 | 0.00 | 0.00 | 0.00 | 63 | 1015.0 |
| 20260506035521 | 17 | 190 | 14.5 | 30.6 | 0.00 | 0.00 | 0.00 | 62 | 1014.9 |
| 20260506035020 | 17 | 188 | 14.5 | 30.6 | 0.00 | 0.00 | 0.00 | 61 | 1014.9 |
| 20260506034521 | 17 | 198 | 14.5 | 27.4 | 0.00 | 0.00 | 0.00 | 61 | 1014.9 |
| 20260506034020 | 17 | 198 | 16.1 | 30.6 | 0.00 | 0.00 | 0.00 | 61 | 1014.9 |
| 20260506033522 | 17 | 194 | 14.5 | 30.6 | 0.00 | 0.00 | 0.00 | 60 | 1014.8 |
| 20260506033020 | 17 | 195 | 12.9 | 25.7 | 0.00 | 0.00 | 0.00 | 60 | 1015.0 |
| 20260506032520 | 17 | 198 | 11.3 | 24.1 | 0.00 | 0.00 | 0.00 | 59 | 1015.0 |
| 20260506032020 | 17 | 192 | 9.7 | 24.1 | 0.00 | 0.00 | 0.00 | 59 | 1015.0 |
| 20260506031522 | 17 | 198 | 11.3 | 20.9 | 0.00 | 0.00 | 0.00 | 58 | 1015.1 |
| 20260506031020 | 17 | 189 | 9.7 | 20.9 | 0.00 | 0.00 | 0.00 | 58 | 1015.1 |
| 20260506030521 | 17 | 195 | 11.3 | 19.3 | 0.00 | 0.00 | 0.00 | 58 | 1015.1 |
| 20260506030020 | 17 | 199 | 12.9 | 24.1 | 0.00 | 0.00 | 0.00 | 57 | 1015.2 |
| 20260506025521 | 17 | 196 | 12.9 | 24.1 | 0.00 | 0.00 | 0.00 | 57 | 1015.4 |
| 20260506025020 | 17 | 199 | 11.3 | 25.7 | 0.00 | 0.00 | 0.00 | 57 | 1015.3 |
| 20260506024520 | 17 | 197 | 12.9 | 25.7 | 0.00 | 0.00 | 0.00 | 57 | 1015.3 |
| 20260506024020 | 18 | 197 | 11.3 | 27.4 | 0.00 | 0.00 | 0.00 | 57 | 1015.3 |
| 20260506023520 | 18 | 199 | 9.7 | 27.4 | 0.00 | 0.00 | 0.00 | 56 | 1015.4 |
| 20260506023020 | 18 | 196 | 9.7 | 29.0 | 0.00 | 0.00 | 0.00 | 56 | 1015.2 |
| 20260506022520 | 18 | 200 | 11.3 | 29.0 | 0.00 | 0.00 | 0.00 | 55 | 1015.4 |
| 20260506022020 | 18 | 198 | 9.7 | 24.1 | 0.00 | 0.00 | 0.00 | 55 | 1015.5 |
| 20260506021520 | 18 | 198 | 9.7 | 22.5 | 0.00 | 0.00 | 0.00 | 55 | 1015.4 |
| 20260506021020 | 18 | 192 | 9.7 | 22.5 | 0.00 | 0.00 | 0.00 | 55 | 1015.5 |
| 20260506020520 | 18 | 200 | 8.0 | 22.5 | 0.00 | 0.00 | 0.00 | 55 | 1015.5 |
| 20260506020020 | 18 | 194 | 9.7 | 29.0 | 0.00 | 0.00 | 0.00 | 54 | 1015.5 |
| 20260506015520 | 18 | 194 | 9.7 | 29.0 | 0.00 | 0.00 | 0.00 | 54 | 1015.4 |
| 20260506015020 | 18 | 195 | 9.7 | 27.4 | 0.00 | 0.00 | 0.00 | 53 | 1015.4 |
| 20260506014521 | 18 | 195 | 9.7 | 24.1 | 0.00 | 0.00 | 0.00 | 54 | 1015.5 |
| 20260506014020 | 18 | 198 | 11.3 | 17.7 | 0.00 | 0.00 | 0.00 | 54 | 1015.5 |
| 20260506013521 | 18 | 200 | 6.4 | 20.9 | 0.00 | 0.00 | 0.00 | 54 | 1015.5 |
| 20260506013020 | 18 | 196 | 6.4 | 20.9 | 0.00 | 0.00 | 0.00 | 54 | 1015.5 |
| 20260506012521 | 18 | 197 | 6.4 | 22.5 | 0.00 | 0.00 | 0.00 | 53 | 1015.6 |
| 20260506012020 | 19 | 204 | 8.0 | 22.5 | 0.00 | 0.00 | 0.00 | 53 | 1015.5 |
| 20260506011521 | 19 | 198 | 6.4 | 19.3 | 0.00 | 0.00 | 0.00 | 53 | 1015.5 |
| 20260506011020 | 18 | 200 | 6.4 | 24.1 | 0.00 | 0.00 | 0.00 | 53 | 1015.5 |
| 20260506010521 | 18 | 194 | 8.0 | 24.1 | 0.00 | 0.00 | 0.00 | 53 | 1015.4 |
| 20260506010020 | 18 | 197 | 8.0 | 22.5 | 0.00 | 0.00 | 0.00 | 53 | 1015.3 |
| 20260506005521 | 18 | 199 | 9.7 | 22.5 | 0.00 | 0.00 | 0.00 | 53 | 1015.2 |
| 20260506005020 | 18 | 206 | 6.4 | 24.1 | 0.00 | 0.00 | 0.00 | 53 | 1015.2 |
| 20260506004521 | 19 | 195 | 8.0 | 24.1 | 0.00 | 0.00 | 0.00 | 53 | 1015.1 |
| 20260506004020 | 19 | 195 | 8.0 | 22.5 | 0.00 | 0.00 | 0.00 | 52 | 1015.2 |
| 20260506003521 | 19 | 196 | 8.0 | 19.3 | 0.00 | 0.00 | 0.00 | 52 | 1015.1 |
| 20260506003020 | 19 | 203 | 6.4 | 19.3 | 0.00 | 0.00 | 0.00 | 52 | 1015.2 |
| 20260506002522 | 19 | 198 | 8.0 | 19.3 | 0.00 | 0.00 | 0.00 | 52 | 1015.2 |
| 20260506002020 | 19 | 197 | 6.4 | 19.3 | 0.00 | 0.00 | 0.00 | 51 | 1015.1 |
| 20260506001521 | 19 | 194 | 6.4 | 25.7 | 0.00 | 0.00 | 0.00 | 51 | 1015.1 |
| 20260506001020 | 19 | 199 | 8.0 | 25.7 | 0.00 | 0.00 | 0.00 | 50 | 1015.1 |
| 20260506000521 | 19 | 196 | 11.3 | 29.0 | 0.00 | 0.00 | 0.00 | 50 | 1015.0 |
| 20260506000020 | 20 | 200 | 6.4 | 29.0 | 0.00 | 0.00 | 0.00 | 50 | 1015.0 |
| 20260505235521 | 20 | 195 | 8.0 | 20.9 | 0.00 | 0.00 | 0.00 | 50 | 1014.9 |
| 20260505235024 | 20 | 205 | 9.7 | 20.9 | 0.00 | 0.00 | 0.00 | 50 | 1015.0 |
| 20260505234524 | 20 | 198 | 9.7 | 19.3 | 0.00 | 0.00 | 0.00 | 49 | 1014.9 |
| 20260505234021 | 20 | 202 | 6.4 | 20.9 | 0.00 | 0.00 | 0.00 | 49 | 1014.9 |
| 20260505233524 | 20 | 200 | 8.0 | 22.5 | 0.00 | 0.00 | 0.00 | 48 | 1015.0 |
| 20260505233022 | 20 | 198 | 9.7 | 22.5 | 0.00 | 0.00 | 0.00 | 48 | 1014.7 |
| 20260505232521 | 20 | 196 | 11.3 | 24.1 | 0.00 | 0.00 | 0.00 | 48 | 1014.6 |
| 20260505232020 | 20 | 192 | 8.0 | 24.1 | 0.00 | 0.00 | 0.00 | 49 | 1014.7 |
| 20260505231524 | 20 | 196 | 9.7 | 22.5 | 0.00 | 0.00 | 0.00 | 49 | 1014.8 |
| 20260505231022 | 20 | 197 | 8.0 | 22.5 | 0.00 | 0.00 | 0.00 | 49 | 1014.9 |
| 20260505230527 | 20 | 197 | 6.4 | 19.3 | 0.00 | 0.00 | 0.00 | 49 | 1014.8 |
| 20260505230023 | 20 | 194 | 8.0 | 27.4 | 0.00 | 0.00 | 0.00 | 48 | 1014.9 |
| 20260505225522 | 20 | 196 | 8.0 | 27.4 | 0.00 | 0.00 | 0.00 | 48 | 1014.7 |
| 20260505225020 | 20 | 196 | 8.0 | 24.1 | 0.00 | 0.00 | 0.00 | 48 | 1014.7 |
| 20260505224522 | 20 | 198 | 11.3 | 29.0 | 0.00 | 0.00 | 0.00 | 47 | 1014.6 |
| 20260505224020 | 20 | 191 | 9.7 | 29.0 | 0.00 | 0.00 | 0.00 | 47 | 1014.6 |
| 20260505223437 | 20 | 194 | 9.7 | 25.7 | 0.00 | 0.00 | 0.00 | 47 | 1014.8 |
| 20260505222940 | 20 | 197 | 8.0 | 27.4 | 0.00 | 0.00 | 0.00 | 47 | 1014.9 |
| 20260505222437 | 20 | 192 | 9.7 | 27.4 | 0.00 | 0.00 | 0.00 | 47 | 1014.7 |
| 20260505221939 | 21 | 197 | 9.7 | 27.4 | 0.00 | 0.00 | 0.00 | 46 | 1014.8 |
| 20260505221438 | 21 | 203 | 11.3 | 27.4 | 0.00 | 0.00 | 0.00 | 46 | 1014.9 |
| 20260505220938 | 21 | 199 | 8.0 | 22.5 | 0.00 | 0.00 | 0.00 | 46 | 1014.9 |
| 20260505220437 | 21 | 196 | 11.3 | 22.5 | 0.00 | 0.00 | 0.00 | 45 | 1015.0 |
| 20260505215941 | 21 | 195 | 9.7 | 22.5 | 0.00 | 0.00 | 0.00 | 46 | 1014.9 |
| 20260505215437 | 21 | 189 | 8.0 | 24.1 | 0.00 | 0.00 | 0.00 | 46 | 1015.0 |
| 20260505214940 | 21 | 200 | 9.7 | 24.1 | 0.00 | 0.00 | 0.00 | 46 | 1015.0 |
| 20260505214439 | 21 | 199 | 9.7 | 24.1 | 0.00 | 0.00 | 0.00 | 45 | 1015.0 |
| 20260505213938 | 21 | 192 | 8.0 | 22.5 | 0.00 | 0.00 | 0.00 | 45 | 1015.2 |
| 20260505213437 | 21 | 190 | 6.4 | 25.7 | 0.00 | 0.00 | 0.00 | 45 | 1015.2 |
| 20260505212938 | 21 | 196 | 11.3 | 27.4 | 0.00 | 0.00 | 0.00 | 44 | 1015.0 |
| 20260505212437 | 21 | 196 | 9.7 | 27.4 | 0.00 | 0.00 | 0.00 | 44 | 1015.1 |
| 20260505211938 | 21 | 197 | 12.9 | 25.7 | 0.00 | 0.00 | 0.00 | 43 | 1015.0 |
| 20260505211437 | 21 | 195 | 9.7 | 29.0 | 0.00 | 0.00 | 0.00 | 44 | 1015.2 |
| 20260505210939 | 21 | 201 | 11.3 | 29.0 | 0.00 | 0.00 | 0.00 | 43 | 1015.2 |
| 20260505210437 | 21 | 199 | 12.9 | 32.2 | 0.00 | 0.00 | 0.00 | 42 | 1015.2 |
| 20260505205937 | 21 | 193 | 12.9 | 32.2 | 0.00 | 0.00 | 0.00 | 42 | 1015.2 |
| 20260505205437 | 21 | 192 | 11.3 | 27.4 | 0.00 | 0.00 | 0.00 | 42 | 1015.4 |
| 20260505204938 | 21 | 199 | 9.7 | 30.6 | 0.00 | 0.00 | 0.00 | 40 | 1015.4 |
| 20260505204437 | 21 | 195 | 12.9 | 30.6 | 0.00 | 0.00 | 0.00 | 38 | 1015.3 |
| 20260505203938 | 21 | 194 | 9.7 | 29.0 | 0.00 | 0.00 | 0.00 | 40 | 1015.3 |
| 20260505203437 | 21 | 202 | 12.9 | 29.0 | 0.00 | 0.00 | 0.00 | 41 | 1015.3 |
| 20260505202938 | 22 | 192 | 11.3 | 29.0 | 0.00 | 0.00 | 0.00 | 42 | 1015.1 |
| 20260505202437 | 22 | 186 | 11.3 | 30.6 | 0.00 | 0.00 | 0.00 | 42 | 1015.2 |
| 20260505201937 | 22 | 183 | 11.3 | 30.6 | 0.00 | 0.00 | 0.00 | 41 | 1015.0 |
| 20260505201439 | 21 | 191 | 16.1 | 30.6 | 0.00 | 0.00 | 0.00 | 41 | 1015.1 |
| 20260505200939 | 21 | 195 | 12.9 | 27.4 | 0.00 | 0.00 | 0.00 | 40 | 1015.4 |
| 20260505200414 | 21 | 186 | 12.9 | 29.0 | 0.00 | 0.00 | 0.00 | 42 | 1015.4 |
| 20260505195914 | 22 | 197 | 16.1 | 29.0 | 0.00 | 0.00 | 0.00 | 39 | 1015.2 |
| 20260505195415 | 22 | 186 | 9.7 | 30.6 | 0.00 | 0.00 | 0.00 | 41 | 1015.3 |
| 20260505194914 | 22 | 194 | 16.1 | 30.6 | 0.00 | 0.00 | 0.00 | 39 | 1015.4 |
| 20260505194414 | 22 | 184 | 12.9 | 29.0 | 0.00 | 0.00 | 0.00 | 42 | 1015.5 |
| 20260505193914 | 22 | 199 | 11.3 | 29.0 | 0.00 | 0.00 | 0.00 | 43 | 1015.8 |
| 20260505193336 | 22 | 172 | 6.4 | 24.1 | 0.00 | 0.00 | 0.00 | 43 | 1015.8 |
| 20260505192803 | 22 | 182 | 9.7 | 30.6 | 0.00 | 0.00 | 0.00 | 41 | 1015.9 |
| 20260505192305 | 22 | 178 | 8.0 | 30.6 | 0.00 | 0.00 | 0.00 | 41 | 1015.9 |
| 20260505191803 | 22 | 187 | 11.3 | 33.8 | 0.00 | 0.00 | 0.00 | 42 | 1016.1 |
| 20260505191304 | 22 | 196 | 12.9 | 33.8 | 0.00 | 0.00 | 0.00 | 41 | 1016.0 |
| 20260505190804 | 22 | 187 | 11.3 | 22.5 | 0.00 | 0.00 | 0.00 | 42 | 1016.1 |
| 20260505190303 | 21 | 184 | 12.9 | 33.8 | 0.00 | 0.00 | 0.00 | 43 | 1016.1 |
| 20260505185803 | 22 | 197 | 14.5 | 33.8 | 0.00 | 0.00 | 0.00 | 42 | 1016.0 |
| 20260505185305 | 22 | 195 | 14.5 | 30.6 | 0.00 | 0.00 | 0.00 | 41 | 1016.0 |
| 20260505184804 | 22 | 200 | 16.1 | 29.0 | 0.00 | 0.00 | 0.00 | 42 | 1016.3 |
| 20260505184303 | 22 | 191 | 12.9 | 29.0 | 0.00 | 0.00 | 0.00 | 43 | 1016.4 |
| 20260505183715 | 22 | 191 | 14.5 | 37.0 | 0.00 | 0.00 | 0.00 | 44 | 1016.5 |
| 20260505183217 | 22 | 188 | 11.3 | 33.8 | 0.00 | 0.00 | 0.00 | 43 | 1016.7 |
| 20260505182716 | 21 | 189 | 11.3 | 24.1 | 0.00 | 0.00 | 0.00 | 44 | 1016.6 |
| 20260505182216 | 21 | 188 | 11.3 | 24.1 | 0.00 | 0.00 | 0.00 | 44 | 1016.7 |
| 20260505181714 | 21 | 195 | 12.9 | 25.7 | 0.00 | 0.00 | 0.00 | 45 | 1017.0 |
| 20260505181215 | 21 | 195 | 12.9 | 25.7 | 0.00 | 0.00 | 0.00 | 43 | 1016.9 |
| 20260505180714 | 22 | 200 | 11.3 | 25.7 | 0.00 | 0.00 | 0.00 | 43 | 1016.8 |
| 20260505180215 | 22 | 188 | 9.7 | 25.7 | 0.00 | 0.00 | 0.00 | 45 | 1016.9 |
| 20260505175714 | 21 | 188 | 6.4 | 25.7 | 0.00 | 0.00 | 0.00 | 49 | 1016.9 |
| 20260505175214 | 21 | 198 | 9.7 | 22.5 | 0.00 | 0.00 | 0.00 | 48 | 1016.9 |
| 20260505174715 | 21 | 192 | 11.3 | 24.1 | 0.00 | 0.00 | 0.00 | 46 | 1016.9 |
| 20260505174214 | 21 | 190 | 9.7 | 24.1 | 0.00 | 0.00 | 0.00 | 47 | 1017.0 |
| 20260505173714 | 21 | 183 | 8.0 | 24.1 | 0.00 | 0.00 | 0.00 | 47 | 1017.0 |
| 20260505173214 | 21 | 198 | 8.0 | 24.1 | 0.00 | 0.00 | 0.00 | 48 | 1017.0 |
| 20260505172714 | 21 | 193 | 9.7 | 17.7 | 0.00 | 0.00 | 0.00 | 47 | 1017.0 |
| 20260505172215 | 21 | 187 | 6.4 | 17.7 | 0.00 | 0.00 | 0.00 | 49 | 1017.2 |
| 20260505171714 | 21 | 198 | 6.4 | 17.7 | 0.00 | 0.00 | 0.00 | 48 | 1017.3 |
| 20260505171147 | 21 | 188 | 6.4 | 19.3 | 0.00 | 0.00 | 0.00 | 49 | 1017.3 |
| 20260505170625 | 21 | 192 | 8.0 | 16.1 | 0.00 | 0.00 | 0.00 | 49 | 1017.4 |
| 20260505170110 | 21 | 187 | 6.4 | 17.7 | 0.00 | 0.00 | 0.00 | 49 | 1017.5 |
| 20260505165610 | 21 | 194 | 11.3 | 20.9 | 0.00 | 0.00 | 0.00 | 47 | 1017.5 |
| 20260505165110 | 21 | 193 | 4.8 | 20.9 | 0.00 | 0.00 | 0.00 | 48 | 1017.5 |
| 20260505164610 | 21 | 188 | 8.0 | 16.1 | 0.00 | 0.00 | 0.00 | 49 | 1017.6 |
| 20260505164110 | 21 | 178 | 3.2 | 16.1 | 0.00 | 0.00 | 0.00 | 50 | 1017.7 |
| 20260505163610 | 21 | 194 | 9.7 | 16.1 | 0.00 | 0.00 | 0.00 | 51 | 1017.8 |
| 20260505163110 | 21 | 186 | 6.4 | 17.7 | 0.00 | 0.00 | 0.00 | 52 | 1017.7 |
| 20260505162610 | 21 | 185 | 1.6 | 17.7 | 0.00 | 0.00 | 0.00 | 52 | 1017.9 |
| 20260505162110 | 21 | 185 | 8.0 | 16.1 | 0.00 | 0.00 | 0.00 | 51 | 1017.9 |
| 20260505161610 | 21 | 174 | 3.2 | 16.1 | 0.00 | 0.00 | 0.00 | 54 | 1017.9 |